Weather in Oktyabr'sky

Russia / Omsk Oblast     55°49′06″N   72°13′05″E
temp.,
°C
wind,
m/s
gust,
m/s
humid.,
%
clouds,
%
prec.,
mm/h
press.,
hPa
HPBL,
m
17 april, sat
sat1700:00+1nne59835 0.0 1026447
03:00−1nne47845 0.0 1026403
06:00−2nne34785 0.0 1028422
09:00−1ne22560 0.0 1028545
12:00+3wsw22394 0.0 1027844
15:00+6wsw45345 0.0 10251366
18:00+7wsw5843100 0.0 10221728
21:00+4sw4967100 0.0 1020188
18 april, sun
sun1800:00+4sw51271100 0.0 1018262
03:00+3wsw51375100 0.0 1015293
06:00+2wsw51378100 0.0 1013273
09:00+5wsw71371100 0.0 1010578
12:00+7w81561100 0.0 10081849
15:00+2nnw10147196 0.5 10111075
18:00−2n101463100 0.6 10181418
21:00−4n812565 0.1 10221401
19 april, mon
mon1900:00−6n7105749 0.1 10251303
03:00−8n795085 0.0 10281183
06:00−9n784948 0.0 10301064
09:00−7nnw684399 0.0 10311364
12:00−5n6834100 0.0 10321767
15:00−3n6730100 0.0 10312168
18:00−3n6732100 0.0 10322140
21:00−4nne464318 0.0 1033727
20 april, tue
tue2000:00−5n36495 0.0 1033927
03:00−5nnw35534 0.0 1033331
06:00−6nw24585 0.0 1034130
09:00−4nw45425 0.0 10331230
12:00−1wnw56316 0.0 10321553
15:00+2wnw672880 0.0 10291729
18:00+2wnw6943100 0.0 10281673
21:00+1w51060100 0.0 1027519
21 april, wed
wed2100:00+1w5127080 0.0 1025327
03:00+1wnw61270100 0.0 1023488
06:00+1wnw5138199 0.0 1022342
09:00+3nw8137651 0.0 1023883
12:00+4nnw91170100 0.1 10241401
15:00+5n71059100 0.2 10271662
18:00+6n685070 0.2 10291619
21:00+2nnw477313 0.0 1032135